Location: Melque
(41.0517°N, 4.4694°W)
Time: 21:49:41
(UTC+00:00)

Daily predictions for brighter satellites

Satellite Brightness Start Highest point End
(mag) Time Altitude Azimuth Time Altitude Azimuth Time Altitude Azimuth
Cosmos 1782 3.1 17:17:30 10° SSW 17:21:03 63° W 17:24:37 10° N
ARIANE 5 R/B 3.0 17:18:19 10° SE 17:22:58 39° ENE 17:27:42 10° N
Cosmos 1607 4.0 17:19:39 10° NNW 17:25:53 67° NE 17:32:09 10° SE
Cosmos 2084 Rocket 3.8 17:22:19 10° NNW 17:26:20 42° NE 17:30:20 10° ESE
SOZ 4.2 17:24:06 10° WSW 17:27:36 62° NW 17:29:40 10° NE
Cosmos 1825 Rocket 4.3 17:24:09 10° NNE 17:27:59 30° ENE 17:31:45 10° SE
Cosmos 2098 Rocket 3.3 17:25:10 10° SSW 17:29:09 73° W 17:33:56 10° N
Cosmos 1758 Rocket 3.9 17:27:03 10° NNW 17:31:19 70° W 17:35:33 10° S
Gbstr 26 Del rocket 3.0 17:31:49 10° WSW 17:36:03 66° NNW 17:39:37 11° NE
NOSS 3-2 (C) 3.5 17:31:25 10° SW 17:36:16 60° NW 17:42:02 10° NNE
UNK 3.7 17:32:31 10° NNE 17:37:07 85° ESE 17:41:39 10° SSW
SPOT 1/Viking Rocket 4.4 17:35:43 10° ESE 17:40:03 28° ENE 17:44:25 10° N
SMAP 3.0 17:37:16 10° SSE 17:41:54 77° ENE 17:46:34 10° N
Meteor 1-20 Rocket 4.1 17:37:55 10° N 17:43:24 79° E 17:48:52 10° SSE
Cosmos 724 4.4 17:37:29 10° NNW 17:43:32 89° WSW 17:49:24 10° SSE
Cosmos 1076 Rocket 4.3 17:42:15 10° NNE 17:46:04 29° ENE 17:49:51 10° SE
Landsat 7 3.7 17:42:06 10° SSE 17:46:42 67° ENE 17:51:20 10° N
IRS-P3 4.4 17:42:26 10° SE 17:47:29 46° ENE 17:52:33 10° N
Cosmos 2058 Rocket 4.2 17:44:01 10° SE 17:47:32 23° E 17:50:44 12° NE
CZ-4C R/B 3.0 17:41:29 10° NNW 17:48:46 75° NE 17:57:38 10° SE
Cosmos 2266 Rocket 3.9 17:42:46 10° N 17:48:56 82° E 17:54:58 10° S
COSMO-SKYMED 1 3.8 17:49:12 15° ENE 17:51:07 20° E 17:54:12 10° SE
Cosmos 783 Rocket 4.5 17:45:59 10° NNW 17:51:18 75° ENE 17:56:34 10° SSE
Cosmos 2297 Rocket 2.7 17:48:38 10° NNW 17:54:15 64° WSW 17:59:49 10° S
Cosmos 1606 Rocket 3.5 17:54:05 10° S 17:58:29 89° WNW 18:02:56 10° N
BlueWalker 3 4.2 17:56:54 10° WNW 17:59:57 26° SW 18:03:00 10° S
ATLAS CENTAUR R/B 3.6 17:58:05 10° WNW 18:00:33 21° WSW 18:02:59 10° SSW
EXPRESS MD2 2.6 17:59:14 10° SW 18:01:35 58° SE 18:03:06 26° ENE
Thor Agena Rocket 4.4 17:59:47 10° S 18:04:52 53° W 18:09:56 10° NNW
SAR-Lupe-3 3.5 18:05:01 28° NNE 18:06:07 62° ESE 18:08:35 10° S
AQUARIUS 4.0 18:04:32 10° SSE 18:08:56 83° ENE 18:13:22 10° N
Resurs 1-3 4.2 18:07:03 10° SE 18:10:49 30° ENE 18:14:35 10° N
BREEZE-M DEB (TANK) 2.8 18:10:21 10° WNW 18:11:49 21° N 18:12:05 21° N
Cosmos 2219 3.9 18:09:14 10° N 18:14:22 32° ENE 18:17:57 17° ESE
Cosmos 1980 Rocket 2.1 18:09:29 10° SSW 18:15:05 68° ESE 18:19:44 15° NNE
Hubble Space Telescope 3.2 18:15:02 10° S 18:15:32 10° S 18:16:03 10° SSE
CZ-2D R/B 3.7 18:15:24 10° S 18:18:27 48° W 18:21:30 10° NNW
Meteor 2-20 4.4 18:12:49 10° S 18:18:57 76° E 18:25:07 10° N
SL-16 R/B 4.4 18:14:33 10° N 18:19:40 28° WNW 18:24:45 10° WSW
NOSS 2-3 (C) 3.4 18:18:39 10° SW 18:22:06 57° NW 18:23:54 25° NNE
Cosmos 1726 Rocket 4.0 18:17:44 10° SSW 18:22:21 69° W 18:26:57 10° N
Spot 4 Rocket 4.2 18:17:41 10° SE 18:22:32 47° ENE 18:27:25 10° N
Meteor 1-5 Rocket 4.1 18:18:38 10° N 18:24:01 87° E 18:29:33 10° S
Cosmos 1898 Rocket 3.5 18:22:19 10° S 18:27:20 58° ESE 18:30:11 25° NE
Cosmos 2369 3.9 18:22:39 10° S 18:28:06 48° ESE 18:30:42 29° NE
Cosmos 2263 Rocket 2.2 18:23:35 10° NNW 18:29:13 60° ENE 18:34:49 10° SE
Okean 1 3.3 18:27:08 10° SSE 18:30:23 47° ESE 18:30:23 47° ESE
YAOGAN 1 2.5 18:30:11 10° SSE 18:34:20 57° ENE 18:38:31 10° N
Cosmos-2242 2.8 18:30:16 10° S 18:34:28 70° E 18:36:35 28° NNE
USA 238 DEB 3.5 18:30:44 10° SW 18:36:45 77° NW 18:41:14 22° NNE
USA 238 3.5 18:30:50 10° SW 18:36:52 78° NW 18:41:19 22° NNE
Cosmos 372 Rocket 3.9 18:34:38 10° SSW 18:39:48 87° WNW 18:43:10 22° NNE
SKYMED 2 3.7 18:36:02 12° N 18:39:58 72° WNW 18:44:17 10° SSW
Meteor 2-20 Rocket 4.3 18:34:24 10° S 18:40:41 79° E 18:46:45 10° N
Cosmos 2227 Rocket 2.8 18:40:08 10° NNW 18:45:40 57° WSW 18:51:09 10° S
Cosmos 1937 Rocket 3.4 18:41:00 10° S 18:46:07 63° ESE 18:47:30 45° NE
SL-08 R/B 4.5 18:42:33 10° N 18:48:49 59° E 18:55:02 10° SSE
Cosmos 2333 Rocket 4.3 18:50:48 10° SSE 18:51:19 12° SE 18:51:19 12° SE
Cosmos 1697 Rocket 4.5 18:51:09 10° WSW 18:55:50 27° NW 19:00:33 10° N
Aureole 1 Rocket 4.0 18:52:18 10° SW 18:56:29 52° WNW 19:00:03 19° N
Meteor 2-10 4.2 18:52:36 10° NNW 18:58:01 77° W 19:03:35 10° S
Cosmos 967 Rocket 4.4 18:55:27 10° SSW 19:01:45 75° ESE 19:03:36 48° NE
Helios 1A Rocket 4.0 19:05:35 31° SSW 19:05:35 31° SSW 19:07:30 10° SSW
CZ-2D R/B 4.5 19:05:00 10° S 19:09:02 46° W 19:13:03 10° NNW
NOAA 6 3.9 19:04:17 10° SSE 19:09:23 88° ENE 19:14:30 10° NNW
COSMOS 2455 2.8 19:07:04 10° SSW 19:12:49 63° ESE 19:12:49 63° ESE
IRAS Rocket 4.4 19:12:01 10° S 19:17:29 70° WSW 19:22:57 10° NNW
COSMO-SKYMED 1 4.1 19:25:33 28° NW 19:26:28 31° WNW 19:30:06 10° SW
Meteor 2-6 Rocket 4.2 19:22:09 10° S 19:27:48 83° W 19:27:57 82° NW
Cosmos 2082 3.8 19:27:22 10° NNW 19:32:39 73° WNW 19:32:39 73° WNW
Cosmos 2237 4.3 19:29:39 10° SSW 19:35:09 71° W 19:35:09 71° W
SL-16 R/B 3.5 19:35:19 10° SSW 19:38:03 30° S 19:38:03 30° S
Cosmos 2219 4.5 19:53:15 10° NW 19:58:30 38° WSW 20:00:03 32° SW
Cosmos 1980 Rocket 4.3 19:55:35 10° W 19:59:35 20° NW 20:01:30 17° NNW
